(164) Eva
ephemeris date magn radius delta ra dec elong phase
Today28 Jul 202611.31.822 AU1.027 AU00h17m-44°58'126.2°26.7°
Opposition31 Aug 202611.01.754 AU0.931 AU00h36m-53°17'129.4°26.4°
(164) Eva - 2026-07-28
astro.vanbuitenen.nl


 
-1 year
-1 month
-1 day
Now
+1 day
+1 month
+1 year

The interactive orbit chart above shows the body's path through the solar system and its position at the given date. Green and blue lines are shown perpendicular to the ecliptic plane: Green if the path is above the ecliptic plane, blue if it is below. (Left-click and drag to rotate the view; Right-click and drag to move the view; Use scroll wheel to zoom in our out.)

The orbital elements of Eva are:

            e (Eccentricity)                : 0.3462488
            a (Semimajor axis)              : 2.6327804
            i (Inclination)                 : 24.47311
            Ω (Longitude of ascending node) : 76.77959
            ω (Argument of perihelion)      : 284.00697
            M (Mean anomaly)                : 330.59377
            Epoch                           : 2026 Jun 09

            L (Longitude of perihelion)     : 2.10692
            B (Latitude of perihelion)      : -23.70004
            P (Orbital period in years)     : 4.27            
        

The light curve chart below shows the estimated development of the minor planet's magnitude.


The all-sky chart below shows the path of the minor planet over the same period as the light curve. The current position is marked yellow.





The following chart shows the path of the minor planet in the next few days. The field of view is optimized for (~10x50) binoculars and finderscopes.




Ephemerides:
Date       Time       RA (2000)    DEC (2000)    delta   radius  elong  phase   PA    magn
2026-07-28 00:00 UT   00 17 36.3   -44 58 36     1.027    1.822  126.2   26.7   279   11.3 
2026-07-28 17:07 UT   00 18 31.8   -45 10 44     1.024    1.820  126.4   26.7   280   11.3 
2026-07-29 00:00 UT   00 18 53.9   -45 15 37     1.022    1.819  126.5   26.7   280   11.3 
2026-07-30 00:00 UT   00 20 09.4   -45 32 37     1.017    1.817  126.7   26.6   281   11.3 
2026-07-31 00:00 UT   00 21 22.7   -45 49 36     1.013    1.815  127.0   26.6   282   11.3 
2026-08-01 00:00 UT   00 22 33.9   -46 06 34     1.008    1.812  127.2   26.5   283   11.3 
2026-08-02 00:00 UT   00 23 42.8   -46 23 30     1.004    1.810  127.4   26.5   284   11.3 
2026-08-03 00:00 UT   00 24 49.3   -46 40 22     1.000    1.808  127.6   26.4   285   11.3 
2026-08-04 00:00 UT   00 25 53.4   -46 57 11     0.996    1.805  127.8   26.4   286   11.2 
2026-08-05 00:00 UT   00 26 55.1   -47 13 56     0.992    1.803  128.0   26.3   287   11.2 
2026-08-06 00:00 UT   00 27 54.3   -47 30 35     0.988    1.801  128.2   26.3   288   11.2 
2026-08-07 00:00 UT   00 28 50.8   -47 47 08     0.984    1.799  128.3   26.3   289   11.2 
2026-08-08 00:00 UT   00 29 44.7   -48 03 35     0.981    1.797  128.5   26.2   290   11.2 
2026-08-09 00:00 UT   00 30 35.8   -48 19 54     0.977    1.794  128.6   26.2   292   11.2 
2026-08-10 00:00 UT   00 31 24.2   -48 36 04     0.974    1.792  128.8   26.2   293   11.2 
2026-08-11 00:00 UT   00 32 09.7   -48 52 04     0.971    1.790  128.9   26.1   294   11.2 
2026-08-12 00:00 UT   00 32 52.3   -49 07 54     0.968    1.788  129.0   26.1   295   11.1 
2026-08-13 00:00 UT   00 33 32.0   -49 23 32     0.965    1.786  129.1   26.1   296   11.1 
2026-08-14 00:00 UT   00 34 08.7   -49 38 58     0.962    1.784  129.2   26.1   297   11.1 
2026-08-15 00:00 UT   00 34 42.3   -49 54 10     0.959    1.782  129.3   26.1   299   11.1 
2026-08-16 00:00 UT   00 35 13.0   -50 09 08     0.956    1.780  129.4   26.1   300   11.1 
2026-08-17 00:00 UT   00 35 40.5   -50 23 50     0.954    1.778  129.5   26.1   301   11.1 
2026-08-18 00:00 UT   00 36 04.9   -50 38 15     0.952    1.776  129.5   26.1   302   11.1 
2026-08-19 00:00 UT   00 36 26.2   -50 52 23     0.949    1.775  129.6   26.1   304   11.1 
2026-08-20 00:00 UT   00 36 44.3   -51 06 13     0.947    1.773  129.6   26.1   305   11.1 
2026-08-21 00:00 UT   00 36 59.2   -51 19 43     0.945    1.771  129.6   26.1   306   11.1 
2026-08-22 00:00 UT   00 37 11.0   -51 32 52     0.943    1.769  129.6   26.1   308   11.1 
2026-08-23 00:00 UT   00 37 19.5   -51 45 41     0.941    1.768  129.7   26.1   309   11.1 
2026-08-24 00:00 UT   00 37 24.8   -51 58 06     0.940    1.766  129.7   26.2   310   11.1 
2026-08-25 00:00 UT   00 37 27.0   -52 10 09     0.938    1.764  129.6   26.2   312   11.1 
2026-08-26 00:00 UT   00 37 25.9   -52 21 48     0.937    1.762  129.6   26.2   313   11.0 
2026-08-27 00:00 UT   00 37 21.7   -52 33 01     0.935    1.761  129.6   26.2   314   11.0 


    Terminology:
            
    delta:  distance between minor planet and earth in AU
    radius: distance between minor planet and sun in AU
    magn:   magnitude (brightness) estimate    
    ra:     right ascension in hours (24h = 360deg)
    dec:    declination in degrees
    elong:  elongation in degrees (angle sun-earth-minor planet)    
    phase:  phase angle in degrees (angle sun-minor planet-earth)        
    AU:     Astronomical Unit (mean distance between earth and sun: 149597870.7 km
    

Orbital elements provided by the MPC (Minor Planet Center).
Calculations by a modified version of AAPlus, a C# implementation of the AA+ project by PJ Naughter from the algorithms presented in the book "Astronomical Algorithms" by Jean Meeus.
NGC2000 dso catalog and star labels from VizieR as provided by the Strasbourg astronomical Data Center.
Tycho2 catalog from the ESO archive.